This is the latest recevied weather packets stored in our database for station/object IZ6UQU-13. If no packets are shown the sender has not sent any weather packets the latest 10 day(s).
| Time | Temp. | Humidity | Pressure | Rain* | Wind** | Luminosity | Snow |
|---|---|---|---|---|---|---|---|
| 1778045402 | 10.56° C | 99% | 955.7 hPa | 0 mm | - | - | - |
| 1778045102 | 10.56° C | 99% | 955.7 hPa | 0 mm | - | - | - |
| 1778044802 | 10.56° C | 99% | 955.5 hPa | 0 mm | - | - | - |
| 1778044502 | 10.56° C | 99% | 955.6 hPa | 0 mm | - | - | - |
| 1778044202 | 10.56° C | 99% | 955.5 hPa | 0 mm | - | - | - |
| 1778043902 | 10.56° C | 99% | 955.4 hPa | 0 mm | - | - | - |
| 1778043602 | 10.56° C | 99% | 955.4 hPa | 0 mm | - | - | - |
| 1778043302 | 10.56° C | 99% | 955.3 hPa | 0 mm | - | - | - |
| 1778043002 | 10.56° C | 99% | 955.3 hPa | 0 mm | - | - | - |
| 1778042702 | 10.56° C | 99% | 955.2 hPa | 0 mm | - | - | - |
| 1778042402 | 10.56° C | 99% | 955.3 hPa | 0 mm | - | - | - |
| 1778042102 | 10.56° C | 99% | 955.2 hPa | 0 mm | - | - | - |
| 1778041802 | 10.56° C | 99% | 955.3 hPa | 0 mm | - | - | - |
| 1778041202 | 10.56° C | 99% | 955.2 hPa | 2.03 mm | - | - | - |
| 1778040902 | 10.56° C | 99% | 955.3 hPa | 2.03 mm | - | - | - |
| 1778040602 | 10.56° C | 99% | 955.3 hPa | 2.03 mm | - | - | - |
| 1778040302 | 10.56° C | 99% | 955.2 hPa | 2.03 mm | - | - | - |
| 1778040002 | 10.56° C | 99% | 955.3 hPa | 2.03 mm | - | - | - |
| 1778039702 | 10.56° C | 99% | 955.4 hPa | 2.03 mm | - | - | - |
| 1778039402 | 10.56° C | 99% | 955.4 hPa | 3.05 mm | - | - | - |
| 1778039102 | 10.56° C | 99% | 955.4 hPa | 3.05 mm | - | - | - |
| 1778038802 | 10.56° C | 98% | 955.4 hPa | 5.08 mm | - | - | - |
| 1778038502 | 10.56° C | 98% | 955.4 hPa | 6.1 mm | - | - | - |
| 1778038202 | 10.56° C | 98% | 955.4 hPa | 6.1 mm | - | - | - |
| 1778037902 | 10.56° C | 98% | 955.3 hPa | 5.08 mm | - | - | - |
* Rain latest hour (hover to see other rain measurements)
** Current wind speed in m/s (hover to see current wind gust speed)